User: anonymous   Login
Location: Unspecified
(0.0000°N, 0.0000°E)
Time: 23:54:46
(UTC+00:00)
Language:

Courier 1B Rocket - Orbit

View from above orbital plane
View from above orbital plane
View from above satellite
View from above satellite

Ground track
Ground track

The orbit data is extracted from the following two-line orbital elements,

1    59U 60013B   18050.06315241 +.00000090 +00000-0 +47019-5 0  9995
2    59 028.2478 261.2722 0189210 357.0738 002.8698 13.52957278831489
Epoch (UTC): 19 February 2018 01:30:56
Eccentricity: 0.0189210
inclination: 28.2478°
perigee height: 920 km
apogee height: 1202 km
right ascension of ascending node: 261.2722°
argument of perigee: 357.0738°
revolutions per day: 13.52957278
mean anomaly at epoch: 2.8698°
orbit number at epoch: 83148

The dashed part of the orbit path shows where the satellite is in the earth's shadow,  

DLR